GW4198 Weather Reports


Display with metric or nautical units.
time (UTC)temp
F
wind
direction
speed
MPH
gust
MPH
rain 1hr
in
rain 24hr
in
rain mn
in
humidity
%
barometer
mb
20260510133226 64 68 0.0 0.0 0.00 0.00 0.00 81 1015.9
20260510132722 64 63 0.0 0.0 0.00 0.00 0.00 82 1015.7
20260510132220 64 103 0.0 0.0 0.00 0.00 0.00 83 1015.6
20260510131716 63 111 0.0 0.0 0.00 0.00 0.00 83 1015.5
20260510131215 63 113 0.0 0.0 0.00 0.00 0.00 83 1015.4
20260510130710 63 113 0.0 0.0 0.00 0.00 0.00 85 1015.2
20260510130208 62 113 0.0 0.0 0.00 0.00 0.00 86 1015.3
20260510125704 62 104 0.0 0.0 0.00 0.00 0.00 87 1015.2
20260510125200 62 86 0.0 0.0 0.00 0.00 0.00 85 1015.1
20260510124657 61 86 0.0 0.0 0.00 0.00 0.00 87 1015.2
20260510124154 61 86 0.0 0.0 0.00 0.00 0.00 88 1015.0
20260510123649 61 86 0.0 0.0 0.00 0.00 0.00 88 1015.3
20260510123146 60 86 0.0 0.0 0.00 0.00 0.00 88 1015.2
20260510122642 60 86 0.0 0.0 0.00 0.00 0.00 89 1015.1
20260510122138 60 80 0.0 0.0 0.00 0.00 0.00 89 1015.0
20260510121635 59 80 0.0 0.0 0.00 0.00 0.00 89 1015.0
20260510121132 59 86 0.0 0.0 0.00 0.00 0.00 89 1014.9
20260510120630 59 86 0.0 0.0 0.00 0.00 0.00 89 1014.9
20260510120125 59 86 0.0 0.0 0.00 0.00 0.00 88 1015.0
20260510115622 59 86 0.0 0.0 0.00 0.00 0.00 89 1014.9
20260510115120 59 86 0.0 0.0 0.00 0.00 0.00 89 1015.1
20260510114615 59 83 0.0 0.0 0.00 0.00 0.00 89 1015.0
20260510114112 59 81 0.0 0.0 0.00 0.00 0.00 88 1015.1
20260510113607 59 75 0.0 0.0 0.00 0.00 0.00 89 1014.9
20260510113105 59 101 0.0 0.0 0.00 0.00 0.00 89 1014.7
20260510112601 59 102 0.0 0.0 0.00 0.00 0.00 88 1014.6
20260510112058 58 102 0.0 0.0 0.00 0.00 0.00 88 1014.7
20260510111554 58 324 0.0 0.0 0.00 0.00 0.00 88 1014.7
20260510111050 59 324 0.0 0.0 0.00 0.00 0.00 88 1014.9
20260510110546 59 324 0.0 0.0 0.00 0.00 0.00 88 1014.7
20260510110043 59 53 0.0 0.0 0.00 0.00 0.00 88 1014.5
20260510105538 59 78 0.0 0.0 0.00 0.00 0.00 89 1014.1
20260510105033 59 78 0.0 0.0 0.00 0.00 0.00 89 1013.9
20260510104530 60 86 0.0 0.0 0.00 0.00 0.00 89 1013.8
20260510104026 60 86 0.0 0.0 0.00 0.00 0.00 88 1013.7
20260510103524 60 86 0.0 0.0 0.00 0.00 0.00 87 1013.8
20260510103020 60 86 0.0 0.0 0.00 0.00 0.00 87 1013.5
20260510102516 60 86 0.0 0.0 0.00 0.00 0.00 87 1013.5
20260510102012 60 86 0.0 0.0 0.00 0.00 0.00 87 1013.4
20260510101509 60 86 0.0 0.0 0.00 0.00 0.00 86 1013.2
20260510101009 60 86 0.0 0.0 0.00 0.00 0.00 87 1013.5
20260510100504 60 82 0.0 0.0 0.00 0.00 0.00 88 1013.4
20260510100001 61 82 0.0 0.0 0.00 0.00 0.00 87 1013.3
20260510095456 61 82 0.0 0.0 0.00 0.00 0.00 87 1013.4
20260510094955 61 82 0.0 0.0 0.00 0.00 0.00 87 1013.4
20260510094451 61 82 0.0 0.0 0.00 0.00 0.00 87 1013.4
20260510093947 61 82 0.0 0.0 0.00 0.00 0.00 87 1013.2
20260510093442 60 82 0.0 0.0 0.00 0.00 0.00 86 1013.1
20260510092939 60 82 0.0 0.0 0.00 0.00 0.00 87 1013.1
20260510092437 60 82 0.0 0.0 0.00 0.00 0.00 86 1013.3
20260510091936 60 82 0.0 0.0 0.00 0.00 0.00 86 1013.4
20260510091433 60 70 0.0 0.0 0.00 0.00 0.00 87 1013.2
20260510090930 60 70 0.0 0.0 0.00 0.00 0.00 87 1013.0
20260510090426 60 70 0.0 0.0 0.00 0.00 0.00 86 1013.1
20260510085922 61 76 0.0 0.0 0.00 0.00 0.00 86 1013.4
20260510085418 61 91 0.0 0.0 0.00 0.00 0.00 84 1013.4
20260510084913 60 91 0.0 0.0 0.00 0.00 0.00 84 1013.4
20260510084411 60 91 0.0 0.0 0.00 0.00 0.00 84 1013.3
20260510083907 60 83 0.0 0.0 0.00 0.00 0.00 83 1013.4
20260510083404 60 83 0.0 0.0 0.00 0.00 0.00 84 1013.4
20260510082859 60 83 0.0 0.0 0.00 0.00 0.00 85 1013.2
20260510082357 60 83 0.0 0.0 0.00 0.00 0.00 85 1013.2
20260510081855 60 83 0.0 0.0 0.00 0.00 0.00 85 1013.1
20260510081351 60 83 0.0 0.0 0.00 0.00 0.00 84 1013.3
20260510080849 60 83 0.0 0.0 0.00 0.00 0.00 84 1013.2
20260510080342 60 83 0.0 0.0 0.00 0.00 0.00 84 1013.2
20260510075839 60 83 0.0 0.0 0.00 0.00 0.00 84 1013.0
20260510075337 60 83 0.0 0.0 0.00 0.00 0.00 84 1012.9
20260510074834 60 83 0.0 0.0 0.00 0.00 0.00 85 1012.9
20260510074331 60 83 0.0 0.0 0.00 0.00 0.00 85 1012.9
20260510073827 60 83 0.0 0.0 0.00 0.00 0.00 85 1012.8
20260510073323 61 112 0.0 0.0 0.00 0.00 0.00 83 1013.0
20260510072819 61 112 0.0 0.0 0.00 0.00 0.00 82 1012.8
20260510072316 61 112 0.0 0.0 0.00 0.00 0.00 81 1012.5
20260510071812 61 112 0.0 0.0 0.00 0.00 0.00 80 1012.7
20260510071303 61 112 0.0 0.0 0.00 0.00 0.00 81 1012.8
20260510070803 61 112 0.0 0.0 0.00 0.00 0.00 81 1012.9
20260510070259 62 112 0.0 0.0 0.00 0.00 0.00 81 1012.9
20260510065759 62 112 0.0 0.0 0.00 0.00 0.00 80 1013.0
20260510065255 62 112 0.0 0.0 0.00 0.00 0.00 79 1013.2
20260510064752 62 112 0.0 0.0 0.00 0.00 0.00 78 1013.1
20260510064250 62 112 0.0 0.0 0.00 0.00 0.00 78 1012.9
20260510063746 62 112 0.0 0.0 0.00 0.00 0.00 77 1013.0
20260510063242 62 112 0.0 0.0 0.00 0.00 0.00 75 1012.9
20260510062739 62 112 0.0 0.0 0.00 0.00 0.00 75 1013.0
20260510062235 62 112 0.0 0.0 0.00 0.00 0.00 76 1013.1
20260510061730 62 112 0.0 0.0 0.00 0.00 0.00 76 1013.1
20260510061228 62 125 0.0 0.0 0.00 0.00 0.00 76 1013.3
20260510060724 62 125 0.0 0.0 0.00 0.00 0.00 77 1013.2
20260510060221 62 91 0.0 0.0 0.00 0.00 0.00 78 1013.2
20260510055717 62 103 0.0 0.0 0.00 0.00 0.00 77 1013.4
20260510055216 62 69 0.0 0.0 0.00 0.00 0.00 77 1013.5
20260510054715 62 74 0.0 0.0 0.00 0.00 0.00 79 1013.7
20260510054211 62 68 0.0 0.0 0.00 0.00 0.00 78 1013.4
20260510053706 62 94 0.0 0.0 0.00 0.00 0.00 77 1013.4
20260510053203 62 94 0.0 0.0 0.00 0.00 0.00 78 1013.5
20260510052658 62 95 0.0 0.0 0.00 0.00 0.00 77 1013.2
20260510052154 61 95 0.0 0.0 0.00 0.00 0.00 77 1013.0
20260510051650 61 95 0.0 0.0 0.00 0.00 0.00 76 1013.0
20260510051147 62 95 0.0 0.0 0.00 0.00 0.00 76 1012.9
20260510050644 61 95 0.0 0.0 0.00 0.00 0.00 76 1012.9
20260510050142 61 95 0.0 0.0 0.00 0.00 0.00 75 1013.0
20260510045638 61 95 0.0 0.0 0.00 0.00 0.00 76 1013.1
20260510045135 61 95 0.0 0.0 0.00 0.00 0.00 75 1012.8
20260510044631 61 95 0.0 0.0 0.00 0.00 0.00 72 1012.6
20260510044129 62 95 0.0 0.0 0.00 0.00 0.00 74 1012.7
20260510043624 62 95 0.0 0.0 0.00 0.00 0.00 73 1012.7
20260510043121 63 95 0.0 0.0 0.00 0.00 0.00 71 1012.7
20260510042619 63 95 0.0 0.0 0.00 0.00 0.00 71 1012.5
20260510042114 63 95 0.0 0.0 0.00 0.00 0.00 69 1012.4
20260510041612 64 95 0.0 0.0 0.00 0.00 0.00 68 1012.3
20260510041109 64 95 0.0 0.0 0.00 0.00 0.00 66 1012.2
20260510040606 63 93 0.0 0.0 0.00 0.00 0.00 68 1012.5
20260510035558 64 93 0.0 0.0 0.00 0.00 0.00 66 1012.3
20260510035057 64 93 0.0 0.0 0.00 0.00 0.00 64 1012.3
20260510034556 65 93 0.0 0.0 0.00 0.00 0.00 64 1012.4
20260510034052 64 93 0.0 0.0 0.00 0.00 0.00 68 1012.3
20260510033549 64 93 0.0 0.0 0.00 0.00 0.00 63 1012.4
20260510033047 63 106 0.0 0.0 0.00 0.00 0.00 65 1012.2
20260510032543 63 112 0.0 0.0 0.00 0.00 0.00 65 1012.2
20260510032038 63 93 0.0 0.0 0.00 0.00 0.00 66 1012.3
20260510031533 62 98 0.0 0.0 0.00 0.00 0.00 66 1012.1
20260510031029 62 102 0.0 0.0 0.00 0.00 0.00 68 1012.2
20260510030525 63 102 0.0 0.0 0.00 0.00 0.00 67 1012.1
20260510030022 63 102 0.0 0.0 0.00 0.00 0.00 65 1011.9
20260510025519 64 102 0.0 0.0 0.00 0.00 0.00 64 1011.8
20260510025017 64 102 0.0 0.0 0.00 0.00 0.00 64 1011.8
20260510024514 64 102 0.0 0.0 0.00 0.00 0.00 62 1011.6
20260510024010 64 102 0.0 0.0 0.00 0.00 0.00 62 1011.5
20260510023506 64 102 0.0 0.0 0.00 0.00 0.00 61 1011.3
20260510023003 65 102 0.0 0.0 0.00 0.00 0.00 64 1011.3
20260510022502 65 101 0.0 0.0 0.00 0.00 0.00 63 1011.1
20260510022002 66 112 0.0 0.0 0.00 0.00 0.00 61 1011.2
20260510021459 65 111 0.0 0.0 0.00 0.00 0.00 59 1011.2
20260510020956 65 111 0.0 0.0 0.00 0.00 0.00 63 1011.1
20260510020450 65 111 0.0 0.0 0.00 0.00 0.00 61 1010.9
20260510015946 66 111 0.0 0.0 0.00 0.00 0.00 62 1010.9
20260510015442 66 111 0.0 0.0 0.00 0.00 0.00 62 1010.8
20260510014937 66 110 0.0 0.0 0.00 0.00 0.00 60 1010.7
20260510014435 66 110 0.0 0.0 0.00 0.00 0.00 63 1010.6
20260510013931 66 110 0.0 0.0 0.00 0.00 0.00 60 1010.7
20260510013426 67 110 0.0 0.0 0.00 0.00 0.00 60 1010.5
20260510012922 67 112 0.0 0.0 0.00 0.00 0.00 60 1010.4
20260510012417 68 118 0.0 0.0 0.00 0.00 0.00 58 1010.5
20260510011912 68 114 0.0 0.0 0.00 0.00 0.00 57 1010.5
20260510011407 68 132 0.0 0.0 0.00 0.00 0.00 59 1010.5
20260510010904 69 100 0.0 0.0 0.00 0.00 0.00 57 1010.5
20260510010401 69 96 0.0 0.0 0.00 0.00 0.00 57 1010.4
20260510005858 70 96 0.0 0.0 0.00 0.00 0.00 57 1010.5
20260510005354 71 115 0.0 0.0 0.00 0.00 0.00 55 1010.4
20260510004851 71 115 0.0 0.0 0.00 0.00 0.00 53 1010.4
20260510004349 72 115 0.0 0.0 0.00 0.00 0.00 54 1010.3
20260510003847 72 125 0.0 0.0 0.00 0.00 0.00 52 1010.2
20260510003343 73 111 0.0 0.0 0.00 0.00 0.00 52 1010.0
20260510002842 73 118 0.0 0.0 0.00 0.00 0.00 52 1009.9
20260510002339 74 107 0.0 0.0 0.00 0.00 0.00 51 1010.2
20260510001836 74 110 0.0 0.0 0.00 0.00 0.00 49 1010.0
20260510001334 75 135 0.0 0.0 0.00 0.00 0.00 49 1010.0
20260510000830 76 114 0.0 0.0 0.00 0.00 0.00 46 1010.2
20260510000328 76 119 0.0 0.0 0.00 0.00 0.00 45 1010.1
20260509235824 77 124 0.0 0.0 0.00 0.00 0.00 45 1010.1
20260509235321 77 109 0.0 0.0 0.00 0.00 0.00 44 1010.0
20260509234817 78 150 0.0 1.0 0.00 0.00 0.00 43 1010.1
20260509234313 78 125 0.0 0.0 0.00 0.00 0.00 43 1009.9
20260509233812 79 118 0.0 0.0 0.00 0.00 0.00 41 1010.0
20260509233309 80 128 0.0 0.0 0.00 0.00 0.00 38 1010.0
20260509232805 82 163 0.0 0.0 0.00 0.00 0.00 37 1009.9
20260509232306 84 111 1.0 1.0 0.00 0.00 0.00 36 1010.0
20260509231758 85 112 0.0 0.0 0.00 0.00 0.00 33 1010.2
20260509231255 84 94 0.0 0.0 0.00 0.00 0.00 31 1010.0
20260509230753 84 154 1.0 1.0 0.00 0.00 0.00 29 1010.1
20260509230250 84 122 0.0 0.0 0.00 0.00 0.00 33 1010.1
20260509225745 86 250 1.0 2.0 0.00 0.00 0.00 27 1009.9
20260509225241 85 104 0.0 0.0 0.00 0.00 0.00 29 1010.0
20260509224737 85 113 0.0 0.0 0.00 0.00 0.00 29 1009.9
20260509224235 86 207 1.0 1.0 0.00 0.00 0.00 27 1010.1
20260509223731 85 77 0.0 0.0 0.00 0.00 0.00 28 1009.9
20260509223228 86 116 0.0 0.0 0.00 0.00 0.00 34 1010.0
20260509222725 84 115 0.0 0.0 0.00 0.00 0.00 30 1010.0
20260509222220 86 83 0.0 0.0 0.00 0.00 0.00 28 1010.1
20260509221716 85 91 0.0 0.0 0.00 0.00 0.00 31 1009.9
20260509221213 86 168 1.0 1.0 0.00 0.00 0.00 28 1009.6
20260509220708 86 347 2.0 2.0 0.00 0.00 0.00 29 1009.6
20260509220205 85 59 0.0 0.0 0.00 0.00 0.00 30 1009.5
20260509215701 85 31 1.0 1.0 0.00 0.00 0.00 30 1009.7
20260509215158 86 356 1.0 1.0 0.00 0.00 0.00 30 1009.7
20260509214655 86 243 0.0 1.0 0.00 0.00 0.00 32 1009.7
20260509214152 86 269 0.0 1.0 0.00 0.00 0.00 29 1009.9
20260509213649 87 216 2.0 2.0 0.00 0.00 0.00 26 1009.7
20260509213144 86 86 0.0 0.0 0.00 0.00 0.00 26 1010.0
20260509212642 86 197 1.0 1.0 0.00 0.00 0.00 28 1010.0
20260509212138 86 201 2.0 2.0 0.00 0.00 0.00 29 1009.9
20260509211635 85 94 0.0 0.0 0.00 0.00 0.00 31 1010.1
20260509211132 86 204 1.0 1.0 0.00 0.00 0.00 28 1010.1
20260509210629 86 345 1.0 1.0 0.00 0.00 0.00 30 1010.2
20260509210126 86 180 0.0 0.0 0.00 0.00 0.00 26 1010.2
20260509205620 86 325 2.0 2.0 0.00 0.00 0.00 30 1010.3
20260509205115 86 233 1.0 1.0 0.00 0.00 0.00 29 1010.2
20260509204611 85 213 2.0 2.0 0.00 0.00 0.00 28 1010.2
20260509204108 84 140 1.0 1.0 0.00 0.00 0.00 28 1010.3
20260509203558 86 122 0.0 0.0 0.00 0.00 0.00 30 1010.3
20260509203057 87 168 1.0 1.0 0.00 0.00 0.00 28 1010.2
20260509202551 86 116 0.0 1.0 0.00 0.00 0.00 34 1010.1
20260509202046 85 110 0.0 0.0 0.00 0.00 0.00 32 1010.5
20260509201541 85 96 1.0 1.0 0.00 0.00 0.00 31 1010.4
20260509201039 85 44 0.0 1.0 0.00 0.00 0.00 31 1010.5
20260509200533 85 64 1.0 1.0 0.00 0.00 0.00 34 1010.7
20260509200030 84 113 0.0 0.0 0.00 0.00 0.00 36 1010.7
20260509195526 84 104 0.0 0.0 0.00 0.00 0.00 31 1010.9
20260509195025 84 221 2.0 2.0 0.00 0.00 0.00 29 1010.7
20260509194520 85 145 1.0 2.0 0.00 0.00 0.00 32 1010.8
20260509194018 84 329 1.0 2.0 0.00 0.00 0.00 33 1010.8
20260509193513 84 56 1.0 1.0 0.00 0.00 0.00 34 1010.9
20260509193010 85 57 1.0 1.0 0.00 0.00 0.00 32 1010.8
20260509192506 86 115 0.0 0.0 0.00 0.00 0.00 30 1010.8
20260509192001 84 42 1.0 1.0 0.00 0.00 0.00 31 1010.8
20260509191456 84 43 1.0 1.0 0.00 0.00 0.00 34 1010.9
20260509190952 85 28 1.0 1.0 0.00 0.00 0.00 31 1011.0
20260509190449 84 146 1.0 2.0 0.00 0.00 0.00 30 1011.1
20260509185947 84 126 1.0 1.0 0.00 0.00 0.00 35 1010.9
20260509185444 83 266 2.0 2.0 0.00 0.00 0.00 33 1011.2
20260509184940 84 155 1.0 1.0 0.00 0.00 0.00 33 1011.1
20260509184438 83 77 0.0 1.0 0.00 0.00 0.00 33 1010.9
20260509183934 82 139 1.0 1.0 0.00 0.00 0.00 35 1011.0
20260509183429 85 67 0.0 0.0 0.00 0.00 0.00 32 1011.0
20260509182926 83 86 0.0 0.0 0.00 0.00 0.00 33 1011.2
20260509182422 83 77 0.0 0.0 0.00 0.00 0.00 38 1010.9
20260509181920 83 101 0.0 0.0 0.00 0.00 0.00 33 1011.1
20260509181418 83 77 0.0 0.0 0.00 0.00 0.00 38 1010.9
20260509180915 83 151 2.0 2.0 0.00 0.00 0.00 35 1011.0
20260509180410 83 111 1.0 1.0 0.00 0.00 0.00 32 1011.0
20260509175907 83 156 1.0 1.0 0.00 0.00 0.00 33 1011.0
20260509175403 82 28 1.0 1.0 0.00 0.00 0.00 32 1011.0
20260509174900 81 313 1.0 1.0 0.00 0.00 0.00 45 1010.9
20260509174356 82 78 0.0 0.0 0.00 0.00 0.00 43 1010.9
20260509173852 82 72 1.0 1.0 0.00 0.00 0.00 39 1011.0
20260509173351 81 79 0.0 0.0 0.00 0.00 0.00 40 1011.0
20260509172848 82 339 0.0 1.0 0.00 0.00 0.00 41 1011.3
20260509172345 80 115 1.0 1.0 0.00 0.00 0.00 48 1011.1
20260509171841 81 250 3.0 4.0 0.00 0.00 0.00 43 1011.3
20260509171337 81 236 1.0 1.0 0.00 0.00 0.00 44 1011.3
20260509170833 81 57 0.0 1.0 0.00 0.00 0.00 48 1011.4
20260509170329 80 79 0.0 0.0 0.00 0.00 0.00 55 1011.3
20260509165824 78 111 1.0 1.0 0.00 0.00 0.00 52 1011.4
20260509165318 80 85 0.0 0.0 0.00 0.00 0.00 51 1011.5
20260509164815 79 83 0.0 0.0 0.00 0.00 0.00 54 1011.4
20260509164311 78 170 0.0 1.0 0.00 0.00 0.00 54 1011.4
20260509163807 79 181 2.0 2.0 0.00 0.00 0.00 53 1011.4
20260509163305 79 97 0.0 0.0 0.00 0.00 0.00 54 1011.4
20260509162804 78 47 0.0 1.0 0.00 0.00 0.00 55 1011.4
20260509162306 78 73 0.0 1.0 0.00 0.00 0.00 56 1011.5
20260509161759 77 26 0.0 0.0 0.00 0.00 0.00 56 1011.4
20260509161255 77 62 0.0 0.0 0.00 0.00 0.00 53 1011.4
20260509160750 77 77 0.0 0.0 0.00 0.00 0.00 56 1011.5
20260509160247 77 351 1.0 1.0 0.00 0.00 0.00 58 1011.5
20260509155742 76 55 0.0 0.0 0.00 0.00 0.00 56 1011.3
20260509155239 75 83 0.0 0.0 0.00 0.00 0.00 59 1011.4
20260509154735 75 64 1.0 2.0 0.00 0.00 0.00 60 1011.3
20260509154232 75 77 0.0 0.0 0.00 0.00 0.00 59 1011.4
20260509153729 74 100 1.0 1.0 0.00 0.00 0.00 62 1011.2
20260509153225 74 26 1.0 1.0 0.00 0.00 0.00 62 1011.4
20260509152722 73 79 0.0 1.0 0.00 0.00 0.00 62 1011.2
20260509152218 72 28 2.0 3.0 0.00 0.00 0.00 63 1011.2
20260509151715 73 67 1.0 1.0 0.00 0.00 0.00 65 1011.2
20260509151212 72 102 0.0 0.0 0.00 0.00 0.00 64 1011.2
20260509150710 71 118 0.0 1.0 0.00 0.00 0.00 67 1011.3
20260509150208 71 66 0.0 0.0 0.00 0.00 0.00 68 1011.3
20260509145704 70 18 1.0 2.0 0.00 0.00 0.00 69 1011.3
20260509145159 69 169 0.0 0.0 0.00 0.00 0.00 72 1011.5
20260509144656 68 328 1.0 2.0 0.00 0.00 0.00 72 1011.4
20260509144153 68 85 1.0 1.0 0.00 0.00 0.00 74 1011.3
20260509143650 67 73 0.0 0.0 0.00 0.00 0.00 75 1011.3
20260509143148 67 35 2.0 3.0 0.00 0.00 0.00 75 1011.3
20260509142643 67 38 1.0 1.0 0.00 0.00 0.00 75 1011.1
20260509142140 66 230 0.0 1.0 0.00 0.00 0.00 76 1011.4
20260509141636 66 41 0.0 1.0 0.00 0.00 0.00 77 1011.2
20260509141132 65 187 3.0 4.0 0.00 0.00 0.00 79 1011.2
20260509140629 64 111 0.0 0.0 0.00 0.00 0.00 80 1011.2
20260509140127 64 75 0.0 0.0 0.00 0.00 0.00 81 1011.1
20260509135624 64 113 0.0 0.0 0.00 0.00 0.00 81 1011.1
20260509135122 63 63 0.0 0.0 0.00 0.00 0.00 83 1011.2
20260509134618 62 67 0.0 0.0 0.00 0.00 0.00 83 1011.2
20260509134116 62 29 0.0 0.0 0.00 0.00 0.00 84 1010.8